Weather History for KFMH - April, 2013

Change the Weather History Date:

Thursday, April 25, 2013

  Actual Average Record
Temperature  
Mean Temperature 50 °F -  
Max Temperature 60 °F 55 °F 64 °F (2006)
Min Temperature 37 °F 38 °F 28 °F (2003)
Degree Days  
Heating Degree Days 16    
Moisture  
Dew Point 43 °F    
Average Humidity 74    
Maximum Humidity 94    
Minimum Humidity 39    
Precipitation  
Precipitation 0.00 in - - ()
Sea Level Pressure  
Sea Level Pressure 30.09 in    
Wind  
Wind Speed 13 mph (SW)    
Max Wind Speed 26 mph    
Max Gust Speed 34 mph    
Visibility 9 miles    
Events Rain    
Averages and records for this station are not official NWS values.
T = Trace of Precipitation, MM = Missing Value Source: NWS Daily Summary

Daily Weather History Graph

Daily Weather History Graph

Search for Another Location

Airport or City:

Trip Planner

Search our weather history database for the weather conditions in past years. The results will help you decide how hot, cold, wet, or windy it might be!

Date:

Astronomy

Apr. 25, 2013 Rise Set
Actual Time 5:46 AM EDT 7:33 PM EDT
Civil Twilight 5:17 AM EDT 8:03 PM EDT
Nautical Twilight 4:41 AM EDT 8:39 PM EDT
Astronomical Twilight 4:02 AM EDT 9:18 PM EDT
Moon 7:43 PM EDT (4/25) 5:27 AM EDT (4/25)
Length of Visible Light 14h 46m
Length of Day
13h 47m
Full, 100% of the Moon is Illuminated
Apr 25
Full
Apr 25
Full
May 2
Last Quarter
May 9
New
May 18
First Quarter

Hourly Weather History & Observations

Time (EDT) Temp. Windchill Dew Point Humidity Pressure Visibility Wind Dir Wind Speed Gust Speed Precip Events Conditions
12:15 AM 50.0 °F - 48.2 °F 94% 29.96 in 7.0 mi SSW 15.0 mph - N/A   Overcast
12:55 AM 50.0 °F - 48.2 °F 94% 29.95 in 8.0 mi SSW 12.7 mph 20.7 mph N/A   Overcast
1:15 AM 53.6 °F - 50.0 °F 88% 29.95 in 10.0 mi SSW 19.6 mph 26.5 mph N/A   Overcast
1:35 AM 53.6 °F - 50.0 °F 88% 29.94 in 10.0 mi SSW 16.1 mph 25.3 mph N/A   Overcast
1:55 AM 53.6 °F - 50.0 °F 88% 29.94 in 10.0 mi SSW 15.0 mph 20.7 mph N/A   Overcast
2:15 AM 55.4 °F - 51.8 °F 88% 29.93 in 10.0 mi SSW 23.0 mph 28.8 mph N/A   Overcast
2:35 AM 55.4 °F - 51.8 °F 88% 29.92 in 10.0 mi SSW 19.6 mph 25.3 mph N/A   Overcast
2:55 AM 55.4 °F - 53.6 °F 94% 29.91 in 10.0 mi SSW 21.9 mph 34.5 mph N/A   Overcast
3:15 AM 57.2 °F - 53.6 °F 88% 29.91 in 10.0 mi SW 24.2 mph 29.9 mph N/A   Overcast
3:35 AM 57.2 °F - 53.6 °F 88% 29.92 in 10.0 mi SSW 17.3 mph 29.9 mph N/A   Overcast
3:55 AM 57.2 °F - 53.6 °F 88% 29.91 in 10.0 mi SW 26.5 mph 33.4 mph N/A   Overcast
4:15 AM 55.4 °F - 51.8 °F 88% 29.92 in 10.0 mi SW 23.0 mph 32.2 mph N/A   Overcast
4:35 AM 55.4 °F - 50.0 °F 82% 29.92 in 9.0 mi SW 21.9 mph 32.2 mph N/A   Overcast
4:55 AM 53.6 °F - 50.0 °F 88% 29.93 in 8.0 mi WSW 20.7 mph 25.3 mph N/A   Overcast
5:15 AM 51.8 °F - 50.0 °F 94% 29.93 in 7.0 mi SW 17.3 mph 25.3 mph N/A   Overcast
5:35 AM 50.0 °F - 48.2 °F 94% 29.95 in 5.0 mi WSW 16.1 mph 25.3 mph N/A   Overcast
5:55 AM 50.0 °F - 48.2 °F 94% 29.95 in 5.0 mi WSW 13.8 mph - N/A   Overcast
6:15 AM 50.0 °F - 48.2 °F 94% 29.97 in 3.0 mi WSW 16.1 mph 19.6 mph N/A   Overcast
6:35 AM 50.0 °F - 48.2 °F 94% 29.99 in 3.0 mi WSW 11.5 mph 20.7 mph N/A   Overcast
6:55 AM 50.0 °F - 48.2 °F 94% 29.99 in 3.0 mi West 11.5 mph - N/A   Overcast
7:15 AM 50.0 °F - 48.2 °F 94% 30.01 in 4.0 mi West 11.5 mph - N/A   Overcast
7:35 AM 50.0 °F - 48.2 °F 94% 30.01 in 4.0 mi West 10.4 mph - N/A   Overcast
7:55 AM 50.0 °F - 48.2 °F 94% 30.03 in 4.0 mi West 9.2 mph - N/A   Overcast
8:15 AM 50.0 °F - 48.2 °F 94% 30.04 in 5.0 mi NW 11.5 mph - N/A   Overcast
8:35 AM 50.0 °F - 39.2 °F 66% 30.06 in 10.0 mi NNW 15.0 mph 21.9 mph N/A   Mostly Cloudy
8:55 AM 48.2 °F - 39.2 °F 71% 30.06 in 10.0 mi NNW 12.7 mph - N/A   Overcast
9:15 AM 48.2 °F - 39.2 °F 71% 30.06 in 10.0 mi NNW 9.2 mph - N/A   Overcast
9:35 AM 50.0 °F - 37.4 °F 62% 30.08 in 10.0 mi NW 12.7 mph 18.4 mph N/A   Overcast
9:55 AM 46.4 °F 41.1 °F 39.2 °F 76% 30.10 in 3.0 mi NW 11.5 mph 24.2 mph 0.03 in Rain Rain
10:15 AM 46.4 °F 42.4 °F 41.0 °F 81% 30.10 in 5.0 mi NW 8.1 mph - 0.01 in Rain Light Rain
10:35 AM 46.4 °F - 41.0 °F 81% 30.11 in 10.0 mi Calm Calm - 0.01 in   Mostly Cloudy
10:55 AM 46.4 °F 45.2 °F 41.0 °F 81% 30.11 in 10.0 mi NNW 3.5 mph - 0.01 in   Mostly Cloudy
11:15 AM 48.2 °F - 41.0 °F 76% 30.12 in 10.0 mi NW 4.6 mph - N/A   Mostly Cloudy
11:35 AM 48.2 °F - 41.0 °F 76% 30.11 in 10.0 mi NNW 3.5 mph - N/A   Mostly Cloudy
11:55 AM 50.0 °F - 41.0 °F 71% 30.12 in 10.0 mi WNW 4.6 mph - N/A   Mostly Cloudy
12:15 PM 53.6 °F - 39.2 °F 58% 30.12 in 10.0 mi WNW 6.9 mph - N/A   Clear
12:35 PM 53.6 °F - 37.4 °F 54% 30.13 in 10.0 mi WNW 8.1 mph - N/A   Clear
12:55 PM 55.4 °F - 37.4 °F 51% 30.13 in 10.0 mi West 5.8 mph - N/A   Partly Cloudy
1:15 PM 57.2 °F - 37.4 °F 48% 30.12 in 10.0 mi WNW 11.5 mph - N/A   Clear
1:35 PM 57.2 °F - 35.6 °F 44% 30.12 in 10.0 mi WNW 4.6 mph - N/A   Partly Cloudy
1:55 PM 59.0 °F - 35.6 °F 42% 30.12 in 10.0 mi NW 6.9 mph - N/A   Clear
2:15 PM 60.8 °F - 35.6 °F 39% 30.12 in - WNW 9.2 mph - N/A   Clear
2:35 PM 60.8 °F - 35.6 °F 39% 30.12 in - WNW 8.1 mph - N/A   Clear
2:55 PM 59.0 °F - 35.6 °F 42% 30.12 in 10.0 mi West 6.9 mph - N/A   Clear
3:15 PM 59.0 °F - 37.4 °F 45% 30.12 in 10.0 mi East 10.4 mph - N/A   Clear
3:35 PM 59.0 °F - 37.4 °F 45% 30.12 in 10.0 mi ESE 10.4 mph - N/A   Clear
3:55 PM 57.2 °F - 39.2 °F 51% 30.12 in 10.0 mi SE 12.7 mph 16.1 mph N/A   Clear
4:15 PM 57.2 °F - 41.0 °F 55% 30.13 in 10.0 mi SSE 10.4 mph - N/A   Clear
4:35 PM 57.2 °F - 41.0 °F 55% 30.13 in 10.0 mi SSE 11.5 mph - N/A   Clear
4:55 PM 57.2 °F - 41.0 °F 55% 30.14 in 10.0 mi South 9.2 mph - N/A   Clear
5:15 PM 57.2 °F - 41.0 °F 55% 30.15 in 10.0 mi SE 8.1 mph - N/A   Clear
5:35 PM 55.4 °F - 41.0 °F 58% 30.15 in 10.0 mi SE 10.4 mph - N/A   Clear
5:55 PM 53.6 °F - 42.8 °F 67% 30.16 in 10.0 mi SE 9.2 mph - N/A   Clear
6:15 PM 53.6 °F - 41.0 °F 62% 30.16 in 10.0 mi SSE 8.1 mph - N/A   Clear
6:35 PM 55.4 °F - 35.6 °F 47% 30.17 in 10.0 mi South 6.9 mph - N/A   Clear
6:55 PM 53.6 °F - 35.6 °F 51% 30.18 in 10.0 mi South 9.2 mph - N/A   Clear
7:15 PM 51.8 °F - 39.2 °F 62% 30.18 in 10.0 mi South 8.1 mph - N/A   Clear
7:35 PM 50.0 °F - 35.6 °F 58% 30.19 in 10.0 mi South 6.9 mph - N/A   Clear
7:55 PM 50.0 °F - 39.2 °F 66% 30.20 in 10.0 mi South 6.9 mph - N/A   Clear
8:15 PM 46.4 °F 45.2 °F 39.2 °F 76% 30.21 in 10.0 mi SSE 3.5 mph - N/A   Clear
8:35 PM 46.4 °F 44.3 °F 41.0 °F 81% 30.22 in 10.0 mi SSE 4.6 mph - N/A   Clear
8:55 PM 46.4 °F - 41.0 °F 81% 30.23 in 10.0 mi Calm Calm - N/A   Clear
9:15 PM 46.4 °F 45.2 °F 41.0 °F 81% 30.23 in 10.0 mi ESE 3.5 mph - N/A   Clear
9:35 PM 42.8 °F 40.1 °F 39.2 °F 87% 30.23 in 10.0 mi SSE 4.6 mph - N/A   Clear
9:55 PM 42.8 °F 40.1 °F 39.2 °F 87% 30.24 in 10.0 mi South 4.6 mph - N/A   Clear
10:15 PM 42.8 °F - 39.2 °F 87% 30.24 in 10.0 mi Calm Calm - N/A   Clear
10:35 PM 42.8 °F - 39.2 °F 87% 30.24 in 10.0 mi Calm Calm - N/A   Clear
10:55 PM 39.2 °F - 37.4 °F 93% 30.25 in 10.0 mi Calm Calm - N/A   Clear
11:15 PM 39.2 °F - 37.4 °F 93% 30.25 in 10.0 mi Calm Calm - N/A   Clear
11:35 PM 39.2 °F - 37.4 °F 93% 30.25 in 8.0 mi Calm Calm - N/A   Clear
11:55 PM 37.4 °F - 35.6 °F 93% 30.26 in 10.0 mi Calm Calm - N/A   Clear